Weather History for KHAO - January, 2014

Change the Weather History Date:

Sunday, January 5, 2014

  Actual Average (KCVG) Record (KCVG)
Temperature  
Mean Temperature 35 °F 31 °F  
Max Temperature 43 °F 38 °F 65 °F (2007)
Min Temperature 25 °F 23 °F -10 °F (1884)
Degree Days  
Heating Degree Days 30 34  
Month to date heating degree days 170  
Since 1 July heating degree days 2089  
Cooling Degree Days 0 0  
Month to date cooling degree days 0  
Year to date cooling degree days 0  
Moisture  
Dew Point 32 °F    
Average Humidity 89    
Maximum Humidity 100    
Minimum Humidity 64    
Precipitation  
Precipitation 0.69 in 0.10 in 1.62 in (2005)
Month to date precipitation 0.51  
Year to date precipitation 0.51  
Snow  
Snow 0.00 in 0.20 in 6.90 in (1977)
Month to date snowfall 0.9  
Since 1 July snowfall 6.5  
Snow Depth -    
Sea Level Pressure  
Sea Level Pressure 29.74 in    
Wind  
Wind Speed 5 mph (NNW)    
Max Wind Speed 26 mph    
Max Gust Speed 34 mph    
Visibility 5 miles    
Events Fog , Rain , Snow    
T = Trace of Precipitation, MM = Missing Value Source: NWS Daily Summary

Daily Weather History Graph

Daily Weather History Graph

Search for Another Location

Airport or City:

Trip Planner

Search our weather history database for the weather conditions in past years. The results will help you decide how hot, cold, wet, or windy it might be!

Date:

Astronomy

Jan. 05, 2014 Rise Set
Actual Time 7:58 AM EST 5:29 PM EST
Civil Twilight 7:28 AM EST 5:58 PM EST
Nautical Twilight 6:54 AM EST 6:32 PM EST
Astronomical Twilight 6:22 AM EST 7:04 PM EST
Moon 10:41 AM EST (1/5) 10:54 PM EST (1/5)
Length of Visible Light 10h 30m
Length of Day
9h 30m
Waxing Crescent, 24% of the Moon is Illuminated
Jan 5
Waxing Crescent
Jan 7
First Quarter
Jan 15
Full
Jan 24
Last Quarter
Jan 30
New

Hourly Weather History & Observations

Time (EST) Temp. Windchill Dew Point Humidity Pressure Visibility Wind Dir Wind Speed Gust Speed Precip Events Conditions
12:53 AM 32.0 °F 28.7 °F 25.0 °F 75% 30.09 in 10.0 mi ESE 3.5 mph - N/A   Overcast
1:53 AM 32.0 °F - 24.1 °F 73% 30.08 in 10.0 mi Calm Calm - N/A   Overcast
2:53 AM 34.0 °F - 25.0 °F 70% 30.09 in 10.0 mi Calm Calm - N/A   Overcast
3:53 AM 33.1 °F - 26.1 °F 75% 30.07 in 10.0 mi Calm Calm - N/A   Overcast
4:53 AM 34.0 °F - 25.0 °F 70% 30.04 in 10.0 mi Calm Calm - N/A   Overcast
5:02 AM 33.8 °F - 26.6 °F 75% 30.02 in 10.0 mi Calm Calm - N/A   Overcast
5:53 AM 36.0 °F 33.3 °F 25.0 °F 64% 30.03 in 10.0 mi SSE 3.5 mph - N/A   Overcast
6:53 AM 36.0 °F - 27.0 °F 70% 30.02 in 10.0 mi Calm Calm - N/A   Overcast
7:53 AM 36.0 °F 33.3 °F 28.9 °F 76% 30.00 in 10.0 mi SE 3.5 mph - N/A   Overcast
8:53 AM 36.0 °F - 28.9 °F 76% 30.01 in 7.0 mi Calm Calm - 0.00 in Rain Light Rain
9:24 AM 33.8 °F 30.8 °F 30.2 °F 87% 29.97 in 2.5 mi NNE 3.5 mph - 0.03 in Rain Light Rain
9:53 AM 34.0 °F 28.8 °F 32.0 °F 92% 29.95 in 2.0 mi East 5.8 mph - 0.05 in Rain Light Rain
10:22 AM 35.6 °F 31.7 °F 33.8 °F 93% 29.90 in 3.0 mi ESE 4.6 mph - 0.00 in   Overcast
10:53 AM 35.1 °F 30.1 °F 34.0 °F 96% 29.90 in 4.0 mi East 5.8 mph - 0.00 in   Overcast
11:30 AM 35.6 °F - 35.6 °F 100% 29.84 in 5.0 mi Calm Calm - N/A   Overcast
11:53 AM 37.0 °F 33.3 °F 35.1 °F 93% 29.83 in 6.0 mi East 4.6 mph - N/A   Overcast
12:53 PM 37.0 °F 34.5 °F 35.1 °F 93% 29.73 in 6.0 mi East 3.5 mph - 0.01 in Rain Light Rain
1:53 PM 43.0 °F 40.3 °F 39.0 °F 86% 29.65 in 10.0 mi Variable 4.6 mph - 0.00 in   Overcast
2:53 PM 39.0 °F 33.4 °F 37.0 °F 93% 29.67 in 4.0 mi NNW 8.1 mph - 0.03 in Rain Light Rain
3:27 PM 37.4 °F 32.1 °F 37.4 °F 100% 29.67 in 3.0 mi NW 6.9 mph - 0.01 in Rain Light Rain
3:35 PM 37.4 °F 34.9 °F 37.4 °F 100% 29.66 in 2.5 mi NNW 3.5 mph - 0.01 in Rain Light Rain
3:47 PM 37.4 °F - 37.4 °F 100% 29.64 in 1.8 mi Calm Calm - 0.03 in Rain Light Rain
3:48 PM 37.9 °F - 37.9 °F 100% 29.66 in 1.8 mi Calm Calm - 0.03 in Rain Light Rain
3:58 PM 37.4 °F - 35.6 °F 93% 29.64 in 2.5 mi Calm Calm - 0.02 in Rain Rain
4:05 PM 37.4 °F - 37.4 °F 100% 29.63 in 0.8 mi Calm Calm - 0.04 in Rain Rain
4:53 PM 37.0 °F 32.4 °F 37.0 °F 100% 29.59 in 0.5 mi East 5.8 mph - 0.14 in Fog , Rain Light Rain
5:53 PM 36.0 °F - 36.0 °F 100% 29.56 in 0.5 mi Calm Calm - 0.14 in Fog , Rain Light Rain
6:53 PM 36.0 °F 33.3 °F 36.0 °F 100% 29.52 in 0.5 mi ESE 3.5 mph - 0.18 in Fog , Rain Light Rain
7:04 PM 37.4 °F 32.8 °F 37.4 °F 100% 29.49 in 2.0 mi Variable 5.8 mph - 0.00 in Rain Light Rain
7:11 PM 37.4 °F 31.4 °F 37.4 °F 100% 29.50 in 4.0 mi SW 8.1 mph - 0.01 in Rain Light Rain
7:45 PM 37.4 °F 28.9 °F 37.4 °F 100% 29.51 in 5.0 mi NW 13.8 mph - 0.05 in Rain Light Rain
7:53 PM 37.0 °F 29.3 °F 37.0 °F 100% 29.52 in 6.0 mi NW 11.5 mph - 0.06 in Rain Light Rain
8:06 PM 37.4 °F 29.3 °F 35.6 °F 93% 29.51 in 6.0 mi NW 12.7 mph 19.6 mph 0.01 in Rain Light Rain
8:08 PM 37.4 °F 30.8 °F 35.6 °F 93% 29.51 in 6.0 mi WNW 9.2 mph 19.6 mph 0.01 in Rain Light Rain
8:26 PM 37.4 °F 28.5 °F 35.6 °F 93% 29.53 in 8.0 mi WNW 15.0 mph 23.0 mph 0.02 in Rain Light Rain
8:53 PM 34.0 °F 27.2 °F 33.1 °F 96% 29.55 in 8.0 mi WNW 8.1 mph - 0.03 in Rain Light Rain
9:21 PM 33.8 °F 25.3 °F 32.0 °F 93% 29.55 in 2.0 mi WNW 11.5 mph - 0.01 in Snow Light Snow
9:33 PM 33.8 °F 23.9 °F 32.0 °F 93% 29.55 in 1.8 mi NW 15.0 mph 20.7 mph 0.02 in Snow Light Snow
9:53 PM 33.1 °F 23.0 °F 32.0 °F 96% 29.60 in 1.5 mi WNW 15.0 mph 23.0 mph 0.02 in Snow Light Snow
10:15 PM 28.4 °F 14.4 °F 24.8 °F 86% 29.64 in 1.8 mi NW 23.0 mph 34.5 mph 0.00 in Snow Light Snow
10:17 PM 28.4 °F 14.4 °F 24.8 °F 86% 29.64 in 2.0 mi WNW 23.0 mph 34.5 mph 0.00 in Snow Light Snow
10:19 PM 28.4 °F 13.5 °F 24.8 °F 86% 29.64 in 3.0 mi WNW 26.5 mph 32.2 mph 0.00 in Snow Light Snow
10:53 PM 27.0 °F 13.2 °F 21.9 °F 81% 29.71 in 9.0 mi WNW 20.7 mph 32.2 mph 0.00 in Snow Light Snow
11:53 PM 25.0 °F 11.7 °F 21.0 °F 85% 29.77 in 9.0 mi WNW 17.3 mph 29.9 mph 0.00 in Snow Light Snow